Index of /20260418/WXO-DD/model_rdps/10km/12/029
Name Last modified Size Description
Parent Directory -
20260418T12Z_MSC_RDPS_AbsoluteVorticity_IsbL-0250_RLatLon0.09_PT029H.grib2 2026-04-18 14:47 605K
20260418T12Z_MSC_RDPS_AbsoluteVorticity_IsbL-0500_RLatLon0.09_PT029H.grib2 2026-04-18 14:47 565K
20260418T12Z_MSC_RDPS_AbsoluteVorticity_IsbL-0700_RLatLon0.09_PT029H.grib2 2026-04-18 14:47 623K
20260418T12Z_MSC_RDPS_AbsoluteVorticity_IsbL-0850_RLatLon0.09_PT029H.grib2 2026-04-18 14:47 793K
20260418T12Z_MSC_RDPS_AirTemp_AGL-120m_RLatLon0.09_PT029H.grib2 2026-04-18 14:47 385K
20260418T12Z_MSC_RDPS_AirTemp_AGL-2m_RLatLon0.09_PT029H.grib2 2026-04-18 14:47 642K
20260418T12Z_MSC_RDPS_AirTemp_AGL-40m_RLatLon0.09_PT029H.grib2 2026-04-18 14:47 397K
20260418T12Z_MSC_RDPS_AirTemp_AGL-80m_RLatLon0.09_PT029H.grib2 2026-04-18 14:47 391K
20260418T12Z_MSC_RDPS_AirTemp_IsbL-0001_RLatLon0.09_PT029H.grib2 2026-04-18 14:47 321K
20260418T12Z_MSC_RDPS_AirTemp_IsbL-0005_RLatLon0.09_PT029H.grib2 2026-04-18 14:47 337K
20260418T12Z_MSC_RDPS_AirTemp_IsbL-0010_RLatLon0.09_PT029H.grib2 2026-04-18 14:47 309K
20260418T12Z_MSC_RDPS_AirTemp_IsbL-0020_RLatLon0.09_PT029H.grib2 2026-04-18 14:47 325K
20260418T12Z_MSC_RDPS_AirTemp_IsbL-0030_RLatLon0.09_PT029H.grib2 2026-04-18 14:47 379K
20260418T12Z_MSC_RDPS_AirTemp_IsbL-0050_RLatLon0.09_PT029H.grib2 2026-04-18 14:47 328K
20260418T12Z_MSC_RDPS_AirTemp_IsbL-0100_RLatLon0.09_PT029H.grib2 2026-04-18 14:47 421K
20260418T12Z_MSC_RDPS_AirTemp_IsbL-0150_RLatLon0.09_PT029H.grib2 2026-04-18 14:47 416K
20260418T12Z_MSC_RDPS_AirTemp_IsbL-0175_RLatLon0.09_PT029H.grib2 2026-04-18 14:47 414K
20260418T12Z_MSC_RDPS_AirTemp_IsbL-0200_RLatLon0.09_PT029H.grib2 2026-04-18 14:47 417K
20260418T12Z_MSC_RDPS_AirTemp_IsbL-0225_RLatLon0.09_PT029H.grib2 2026-04-18 14:47 419K
20260418T12Z_MSC_RDPS_AirTemp_IsbL-0250_RLatLon0.09_PT029H.grib2 2026-04-18 14:47 425K
20260418T12Z_MSC_RDPS_AirTemp_IsbL-0275_RLatLon0.09_PT029H.grib2 2026-04-18 14:47 402K
20260418T12Z_MSC_RDPS_AirTemp_IsbL-0300_RLatLon0.09_PT029H.grib2 2026-04-18 14:47 405K
20260418T12Z_MSC_RDPS_AirTemp_IsbL-0350_RLatLon0.09_PT029H.grib2 2026-04-18 14:47 418K
20260418T12Z_MSC_RDPS_AirTemp_IsbL-0400_RLatLon0.09_PT029H.grib2 2026-04-18 14:47 421K
20260418T12Z_MSC_RDPS_AirTemp_IsbL-0450_RLatLon0.09_PT029H.grib2 2026-04-18 14:47 396K
20260418T12Z_MSC_RDPS_AirTemp_IsbL-0500_RLatLon0.09_PT029H.grib2 2026-04-18 14:47 408K
20260418T12Z_MSC_RDPS_AirTemp_IsbL-0550_RLatLon0.09_PT029H.grib2 2026-04-18 14:47 428K
20260418T12Z_MSC_RDPS_AirTemp_IsbL-0600_RLatLon0.09_PT029H.grib2 2026-04-18 14:47 451K
20260418T12Z_MSC_RDPS_AirTemp_IsbL-0650_RLatLon0.09_PT029H.grib2 2026-04-18 14:47 470K
20260418T12Z_MSC_RDPS_AirTemp_IsbL-0700_RLatLon0.09_PT029H.grib2 2026-04-18 14:47 498K
20260418T12Z_MSC_RDPS_AirTemp_IsbL-0750_RLatLon0.09_PT029H.grib2 2026-04-18 14:47 540K
20260418T12Z_MSC_RDPS_AirTemp_IsbL-0800_RLatLon0.09_PT029H.grib2 2026-04-18 14:47 474K
20260418T12Z_MSC_RDPS_AirTemp_IsbL-0850_RLatLon0.09_PT029H.grib2 2026-04-18 14:47 517K
20260418T12Z_MSC_RDPS_AirTemp_IsbL-0875_RLatLon0.09_PT029H.grib2 2026-04-18 14:47 531K
20260418T12Z_MSC_RDPS_AirTemp_IsbL-0900_RLatLon0.09_PT029H.grib2 2026-04-18 14:47 534K
20260418T12Z_MSC_RDPS_AirTemp_IsbL-0925_RLatLon0.09_PT029H.grib2 2026-04-18 14:47 528K
20260418T12Z_MSC_RDPS_AirTemp_IsbL-0950_RLatLon0.09_PT029H.grib2 2026-04-18 14:47 528K
20260418T12Z_MSC_RDPS_AirTemp_IsbL-0970_RLatLon0.09_PT029H.grib2 2026-04-18 14:47 526K
20260418T12Z_MSC_RDPS_AirTemp_IsbL-0985_RLatLon0.09_PT029H.grib2 2026-04-18 14:47 531K
20260418T12Z_MSC_RDPS_AirTemp_IsbL-1000_RLatLon0.09_PT029H.grib2 2026-04-18 14:47 519K
20260418T12Z_MSC_RDPS_AirTemp_IsbL-1015_RLatLon0.09_PT029H.grib2 2026-04-18 14:47 517K
20260418T12Z_MSC_RDPS_Albedo_Sfc_RLatLon0.09_PT029H.grib2 2026-04-18 14:47 164K
20260418T12Z_MSC_RDPS_CAPE_Sfc_RLatLon0.09_PT029H.grib2 2026-04-18 14:47 1.7M
20260418T12Z_MSC_RDPS_CIN_Sfc_RLatLon0.09_PT029H.grib2 2026-04-18 14:47 1.1M
20260418T12Z_MSC_RDPS_CloudWater_EAtm_RLatLon0.09_PT029H.grib2 2026-04-18 14:47 212K
20260418T12Z_MSC_RDPS_ConvectivePrecip-Accum_Sfc_RLatLon0.09_PT029H.grib2 2026-04-18 14:47 950K
20260418T12Z_MSC_RDPS_DewPointDepression_AGL-2m_RLatLon0.09_PT029H.grib2 2026-04-18 14:47 421K
20260418T12Z_MSC_RDPS_DewPointDepression_IsbL-0001_RLatLon0.09_PT029H.grib2 2026-04-18 14:47 193
20260418T12Z_MSC_RDPS_DewPointDepression_IsbL-0005_RLatLon0.09_PT029H.grib2 2026-04-18 14:47 193
20260418T12Z_MSC_RDPS_DewPointDepression_IsbL-0010_RLatLon0.09_PT029H.grib2 2026-04-18 14:47 193
20260418T12Z_MSC_RDPS_DewPointDepression_IsbL-0020_RLatLon0.09_PT029H.grib2 2026-04-18 14:47 193
20260418T12Z_MSC_RDPS_DewPointDepression_IsbL-0030_RLatLon0.09_PT029H.grib2 2026-04-18 14:47 1.4K
20260418T12Z_MSC_RDPS_DewPointDepression_IsbL-0050_RLatLon0.09_PT029H.grib2 2026-04-18 14:47 120K
20260418T12Z_MSC_RDPS_DewPointDepression_IsbL-0100_RLatLon0.09_PT029H.grib2 2026-04-18 14:47 122K
20260418T12Z_MSC_RDPS_DewPointDepression_IsbL-0150_RLatLon0.09_PT029H.grib2 2026-04-18 14:47 149K
20260418T12Z_MSC_RDPS_DewPointDepression_IsbL-0175_RLatLon0.09_PT029H.grib2 2026-04-18 14:47 178K
20260418T12Z_MSC_RDPS_DewPointDepression_IsbL-0200_RLatLon0.09_PT029H.grib2 2026-04-18 14:47 216K
20260418T12Z_MSC_RDPS_DewPointDepression_IsbL-0225_RLatLon0.09_PT029H.grib2 2026-04-18 14:47 250K
20260418T12Z_MSC_RDPS_DewPointDepression_IsbL-0250_RLatLon0.09_PT029H.grib2 2026-04-18 14:47 285K
20260418T12Z_MSC_RDPS_DewPointDepression_IsbL-0275_RLatLon0.09_PT029H.grib2 2026-04-18 14:47 296K
20260418T12Z_MSC_RDPS_DewPointDepression_IsbL-0300_RLatLon0.09_PT029H.grib2 2026-04-18 14:47 315K
20260418T12Z_MSC_RDPS_DewPointDepression_IsbL-0350_RLatLon0.09_PT029H.grib2 2026-04-18 14:47 326K
20260418T12Z_MSC_RDPS_DewPointDepression_IsbL-0400_RLatLon0.09_PT029H.grib2 2026-04-18 14:47 347K
20260418T12Z_MSC_RDPS_DewPointDepression_IsbL-0450_RLatLon0.09_PT029H.grib2 2026-04-18 14:47 360K
20260418T12Z_MSC_RDPS_DewPointDepression_IsbL-0500_RLatLon0.09_PT029H.grib2 2026-04-18 14:47 367K
20260418T12Z_MSC_RDPS_DewPointDepression_IsbL-0550_RLatLon0.09_PT029H.grib2 2026-04-18 14:47 377K
20260418T12Z_MSC_RDPS_DewPointDepression_IsbL-0600_RLatLon0.09_PT029H.grib2 2026-04-18 14:47 388K
20260418T12Z_MSC_RDPS_DewPointDepression_IsbL-0650_RLatLon0.09_PT029H.grib2 2026-04-18 14:47 392K
20260418T12Z_MSC_RDPS_DewPointDepression_IsbL-0700_RLatLon0.09_PT029H.grib2 2026-04-18 14:47 402K
20260418T12Z_MSC_RDPS_DewPointDepression_IsbL-0750_RLatLon0.09_PT029H.grib2 2026-04-18 14:47 424K
20260418T12Z_MSC_RDPS_DewPointDepression_IsbL-0800_RLatLon0.09_PT029H.grib2 2026-04-18 14:47 456K
20260418T12Z_MSC_RDPS_DewPointDepression_IsbL-0850_RLatLon0.09_PT029H.grib2 2026-04-18 14:47 475K
20260418T12Z_MSC_RDPS_DewPointDepression_IsbL-0875_RLatLon0.09_PT029H.grib2 2026-04-18 14:47 473K
20260418T12Z_MSC_RDPS_DewPointDepression_IsbL-0900_RLatLon0.09_PT029H.grib2 2026-04-18 14:47 464K
20260418T12Z_MSC_RDPS_DewPointDepression_IsbL-0925_RLatLon0.09_PT029H.grib2 2026-04-18 14:47 456K
20260418T12Z_MSC_RDPS_DewPointDepression_IsbL-0950_RLatLon0.09_PT029H.grib2 2026-04-18 14:47 452K
20260418T12Z_MSC_RDPS_DewPointDepression_IsbL-0970_RLatLon0.09_PT029H.grib2 2026-04-18 14:47 448K
20260418T12Z_MSC_RDPS_DewPointDepression_IsbL-0985_RLatLon0.09_PT029H.grib2 2026-04-18 14:47 445K
20260418T12Z_MSC_RDPS_DewPointDepression_IsbL-1000_RLatLon0.09_PT029H.grib2 2026-04-18 14:47 440K
20260418T12Z_MSC_RDPS_DewPointDepression_IsbL-1015_RLatLon0.09_PT029H.grib2 2026-04-18 14:47 429K
20260418T12Z_MSC_RDPS_DewPoint_AGL-2m_RLatLon0.09_PT029H.grib2 2026-04-18 14:47 412K
20260418T12Z_MSC_RDPS_DownwardLongwaveRadiationFlux-Accum_Sfc_RLatLon0.09_PT029H.grib2 2026-04-18 14:47 452K
20260418T12Z_MSC_RDPS_DownwardShortwaveRadiationFlux-Accum_NTAtm_RLatLon0.09_PT029H.grib2 2026-04-18 14:47 142K
20260418T12Z_MSC_RDPS_DownwardShortwaveRadiationFlux-Accum_Sfc_RLatLon0.09_PT029H.grib2 2026-04-18 14:47 521K
20260418T12Z_MSC_RDPS_FreezingRain-Accum1h_Sfc_RLatLon0.09_PT029H.grib2 2026-04-18 14:47 9.8K
20260418T12Z_MSC_RDPS_FreezingRain-Accum_Sfc_RLatLon0.09_PT029H.grib2 2026-04-18 14:47 86K
20260418T12Z_MSC_RDPS_GeopotentialHeight_IsbL-0001_RLatLon0.09_PT029H.grib2 2026-04-18 14:47 211K
20260418T12Z_MSC_RDPS_GeopotentialHeight_IsbL-0005_RLatLon0.09_PT029H.grib2 2026-04-18 14:47 239K
20260418T12Z_MSC_RDPS_GeopotentialHeight_IsbL-0010_RLatLon0.09_PT029H.grib2 2026-04-18 14:47 314K
20260418T12Z_MSC_RDPS_GeopotentialHeight_IsbL-0020_RLatLon0.09_PT029H.grib2 2026-04-18 14:47 342K
20260418T12Z_MSC_RDPS_GeopotentialHeight_IsbL-0030_RLatLon0.09_PT029H.grib2 2026-04-18 14:47 312K
20260418T12Z_MSC_RDPS_GeopotentialHeight_IsbL-0050_RLatLon0.09_PT029H.grib2 2026-04-18 14:47 314K
20260418T12Z_MSC_RDPS_GeopotentialHeight_IsbL-0100_RLatLon0.09_PT029H.grib2 2026-04-18 14:47 287K
20260418T12Z_MSC_RDPS_GeopotentialHeight_IsbL-0150_RLatLon0.09_PT029H.grib2 2026-04-18 14:47 258K
20260418T12Z_MSC_RDPS_GeopotentialHeight_IsbL-0175_RLatLon0.09_PT029H.grib2 2026-04-18 14:47 262K
20260418T12Z_MSC_RDPS_GeopotentialHeight_IsbL-0200_RLatLon0.09_PT029H.grib2 2026-04-18 14:47 264K
20260418T12Z_MSC_RDPS_GeopotentialHeight_IsbL-0225_RLatLon0.09_PT029H.grib2 2026-04-18 14:47 266K
20260418T12Z_MSC_RDPS_GeopotentialHeight_IsbL-0250_RLatLon0.09_PT029H.grib2 2026-04-18 14:47 267K
20260418T12Z_MSC_RDPS_GeopotentialHeight_IsbL-0275_RLatLon0.09_PT029H.grib2 2026-04-18 14:47 267K
20260418T12Z_MSC_RDPS_GeopotentialHeight_IsbL-0300_RLatLon0.09_PT029H.grib2 2026-04-18 14:47 266K
20260418T12Z_MSC_RDPS_GeopotentialHeight_IsbL-0350_RLatLon0.09_PT029H.grib2 2026-04-18 14:47 232K
20260418T12Z_MSC_RDPS_GeopotentialHeight_IsbL-0400_RLatLon0.09_PT029H.grib2 2026-04-18 14:47 229K
20260418T12Z_MSC_RDPS_GeopotentialHeight_IsbL-0450_RLatLon0.09_PT029H.grib2 2026-04-18 14:47 299K
20260418T12Z_MSC_RDPS_GeopotentialHeight_IsbL-0500_RLatLon0.09_PT029H.grib2 2026-04-18 14:47 295K
20260418T12Z_MSC_RDPS_GeopotentialHeight_IsbL-0550_RLatLon0.09_PT029H.grib2 2026-04-18 14:47 292K
20260418T12Z_MSC_RDPS_GeopotentialHeight_IsbL-0600_RLatLon0.09_PT029H.grib2 2026-04-18 14:47 289K
20260418T12Z_MSC_RDPS_GeopotentialHeight_IsbL-0650_RLatLon0.09_PT029H.grib2 2026-04-18 14:47 288K
20260418T12Z_MSC_RDPS_GeopotentialHeight_IsbL-0700_RLatLon0.09_PT029H.grib2 2026-04-18 14:47 262K
20260418T12Z_MSC_RDPS_GeopotentialHeight_IsbL-0750_RLatLon0.09_PT029H.grib2 2026-04-18 14:47 266K
20260418T12Z_MSC_RDPS_GeopotentialHeight_IsbL-0800_RLatLon0.09_PT029H.grib2 2026-04-18 14:47 274K
20260418T12Z_MSC_RDPS_GeopotentialHeight_IsbL-0850_RLatLon0.09_PT029H.grib2 2026-04-18 14:47 368K
20260418T12Z_MSC_RDPS_GeopotentialHeight_IsbL-0875_RLatLon0.09_PT029H.grib2 2026-04-18 14:47 371K
20260418T12Z_MSC_RDPS_GeopotentialHeight_IsbL-0900_RLatLon0.09_PT029H.grib2 2026-04-18 14:47 374K
20260418T12Z_MSC_RDPS_GeopotentialHeight_IsbL-0925_RLatLon0.09_PT029H.grib2 2026-04-18 14:47 378K
20260418T12Z_MSC_RDPS_GeopotentialHeight_IsbL-0950_RLatLon0.09_PT029H.grib2 2026-04-18 14:47 380K
20260418T12Z_MSC_RDPS_GeopotentialHeight_IsbL-0970_RLatLon0.09_PT029H.grib2 2026-04-18 14:47 385K
20260418T12Z_MSC_RDPS_GeopotentialHeight_IsbL-0985_RLatLon0.09_PT029H.grib2 2026-04-18 14:47 396K
20260418T12Z_MSC_RDPS_GeopotentialHeight_IsbL-1000_RLatLon0.09_PT029H.grib2 2026-04-18 14:47 409K
20260418T12Z_MSC_RDPS_GeopotentialHeight_IsbL-1015_RLatLon0.09_PT029H.grib2 2026-04-18 14:47 425K
20260418T12Z_MSC_RDPS_Humidex_Sfc_RLatLon0.09_PT029H.grib2 2026-04-18 14:47 2.4M
20260418T12Z_MSC_RDPS_IcePellets-Accum1h_Sfc_RLatLon0.09_PT029H.grib2 2026-04-18 14:47 3.0K
20260418T12Z_MSC_RDPS_IcePellets-Accum_Sfc_RLatLon0.09_PT029H.grib2 2026-04-18 14:47 33K
20260418T12Z_MSC_RDPS_KIndex_Sfc_RLatLon0.09_PT029H.grib2 2026-04-18 14:47 2.5M
20260418T12Z_MSC_RDPS_LatentHeatNetFlux_Sfc_RLatLon0.09_PT029H.grib2 2026-04-18 14:47 300K
20260418T12Z_MSC_RDPS_LiftedIndex-MU-VT_IsbL-0500_RLatLon0.09_PT029H.grib2 2026-04-18 14:47 2.4M
20260418T12Z_MSC_RDPS_NetLongwaveRadiationFlux-Accum_Sfc_RLatLon0.09_PT029H.grib2 2026-04-18 14:47 606K
20260418T12Z_MSC_RDPS_NetShortwaveRadiationFlux-Accum_Sfc_RLatLon0.09_PT029H.grib2 2026-04-18 14:47 531K
20260418T12Z_MSC_RDPS_PlanetaryBoundaryLayerHeight_Sfc_RLatLon0.09_PT029H.grib2 2026-04-18 14:47 1.2M
20260418T12Z_MSC_RDPS_Precip-Accum1h_Sfc_RLatLon0.09_PT029H.grib2 2026-04-18 14:47 1.2M
20260418T12Z_MSC_RDPS_Precip-Accum_Sfc_RLatLon0.09_PT029H.grib2 2026-04-18 14:47 1.9M
20260418T12Z_MSC_RDPS_PrecipRate_Sfc_RLatLon0.09_PT029H.grib2 2026-04-18 14:47 174K
20260418T12Z_MSC_RDPS_PrecipType-Instant_Sfc_RLatLon0.09_PT029H.grib2 2026-04-18 14:47 589K
20260418T12Z_MSC_RDPS_Pressure-Trend3h_Sfc_RLatLon0.09_PT029H.grib2 2026-04-18 14:47 1.1M
20260418T12Z_MSC_RDPS_Pressure_MSL_RLatLon0.09_PT029H.grib2 2026-04-18 14:47 305K
20260418T12Z_MSC_RDPS_Pressure_PVU-1.5_RLatLon0.09_PT029H.grib2 2026-04-18 14:47 2.3M
20260418T12Z_MSC_RDPS_Pressure_PVU-1_RLatLon0.09_PT029H.grib2 2026-04-18 14:47 2.4M
20260418T12Z_MSC_RDPS_Pressure_PVU-2_RLatLon0.09_PT029H.grib2 2026-04-18 14:47 2.4M
20260418T12Z_MSC_RDPS_Pressure_Sfc_RLatLon0.09_PT029H.grib2 2026-04-18 14:47 502K
20260418T12Z_MSC_RDPS_RadiativeTemp_Sfc_RLatLon0.09_PT029H.grib2 2026-04-18 14:47 326K
20260418T12Z_MSC_RDPS_Rain-Accum1h_Sfc_RLatLon0.09_PT029H.grib2 2026-04-18 14:47 581K
20260418T12Z_MSC_RDPS_Rain-Accum_Sfc_RLatLon0.09_PT029H.grib2 2026-04-18 14:47 1.5M
20260418T12Z_MSC_RDPS_RelativeHumidity_AGL-2m_RLatLon0.09_PT029H.grib2 2026-04-18 14:47 1.0M
20260418T12Z_MSC_RDPS_RelativeHumidity_IsbL-0010_RLatLon0.09_PT029H.grib2 2026-04-18 14:47 513K
20260418T12Z_MSC_RDPS_RelativeHumidity_IsbL-0020_RLatLon0.09_PT029H.grib2 2026-04-18 14:47 400K
20260418T12Z_MSC_RDPS_RelativeHumidity_IsbL-0030_RLatLon0.09_PT029H.grib2 2026-04-18 14:47 466K
20260418T12Z_MSC_RDPS_RelativeHumidity_IsbL-0050_RLatLon0.09_PT029H.grib2 2026-04-18 14:47 290K
20260418T12Z_MSC_RDPS_RelativeHumidity_IsbL-0100_RLatLon0.09_PT029H.grib2 2026-04-18 14:47 364K
20260418T12Z_MSC_RDPS_RelativeHumidity_IsbL-0150_RLatLon0.09_PT029H.grib2 2026-04-18 14:47 376K
20260418T12Z_MSC_RDPS_RelativeHumidity_IsbL-0175_RLatLon0.09_PT029H.grib2 2026-04-18 14:47 466K
20260418T12Z_MSC_RDPS_RelativeHumidity_IsbL-0200_RLatLon0.09_PT029H.grib2 2026-04-18 14:47 545K
20260418T12Z_MSC_RDPS_RelativeHumidity_IsbL-0225_RLatLon0.09_PT029H.grib2 2026-04-18 14:47 615K
20260418T12Z_MSC_RDPS_RelativeHumidity_IsbL-0250_RLatLon0.09_PT029H.grib2 2026-04-18 14:47 679K
20260418T12Z_MSC_RDPS_RelativeHumidity_IsbL-0275_RLatLon0.09_PT029H.grib2 2026-04-18 14:47 700K
20260418T12Z_MSC_RDPS_RelativeHumidity_IsbL-0300_RLatLon0.09_PT029H.grib2 2026-04-18 14:47 740K
20260418T12Z_MSC_RDPS_RelativeHumidity_IsbL-0350_RLatLon0.09_PT029H.grib2 2026-04-18 14:47 761K
20260418T12Z_MSC_RDPS_RelativeHumidity_IsbL-0400_RLatLon0.09_PT029H.grib2 2026-04-18 14:47 786K
20260418T12Z_MSC_RDPS_RelativeHumidity_IsbL-0450_RLatLon0.09_PT029H.grib2 2026-04-18 14:47 800K
20260418T12Z_MSC_RDPS_RelativeHumidity_IsbL-0500_RLatLon0.09_PT029H.grib2 2026-04-18 14:47 810K
20260418T12Z_MSC_RDPS_RelativeHumidity_IsbL-0550_RLatLon0.09_PT029H.grib2 2026-04-18 14:47 839K
20260418T12Z_MSC_RDPS_RelativeHumidity_IsbL-0600_RLatLon0.09_PT029H.grib2 2026-04-18 14:47 856K
20260418T12Z_MSC_RDPS_RelativeHumidity_IsbL-0650_RLatLon0.09_PT029H.grib2 2026-04-18 14:47 866K
20260418T12Z_MSC_RDPS_RelativeHumidity_IsbL-0700_RLatLon0.09_PT029H.grib2 2026-04-18 14:47 888K
20260418T12Z_MSC_RDPS_RelativeHumidity_IsbL-0750_RLatLon0.09_PT029H.grib2 2026-04-18 14:47 933K
20260418T12Z_MSC_RDPS_RelativeHumidity_IsbL-0800_RLatLon0.09_PT029H.grib2 2026-04-18 14:47 1.0M
20260418T12Z_MSC_RDPS_RelativeHumidity_IsbL-0850_RLatLon0.09_PT029H.grib2 2026-04-18 14:47 1.0M
20260418T12Z_MSC_RDPS_RelativeHumidity_IsbL-0875_RLatLon0.09_PT029H.grib2 2026-04-18 14:47 1.1M
20260418T12Z_MSC_RDPS_RelativeHumidity_IsbL-0900_RLatLon0.09_PT029H.grib2 2026-04-18 14:47 1.1M
20260418T12Z_MSC_RDPS_RelativeHumidity_IsbL-0925_RLatLon0.09_PT029H.grib2 2026-04-18 14:47 1.1M
20260418T12Z_MSC_RDPS_RelativeHumidity_IsbL-0950_RLatLon0.09_PT029H.grib2 2026-04-18 14:47 1.1M
20260418T12Z_MSC_RDPS_RelativeHumidity_IsbL-0970_RLatLon0.09_PT029H.grib2 2026-04-18 14:47 1.1M
20260418T12Z_MSC_RDPS_RelativeHumidity_IsbL-0985_RLatLon0.09_PT029H.grib2 2026-04-18 14:47 1.0M
20260418T12Z_MSC_RDPS_RelativeHumidity_IsbL-1000_RLatLon0.09_PT029H.grib2 2026-04-18 14:47 1.0M
20260418T12Z_MSC_RDPS_RelativeHumidity_IsbL-1015_RLatLon0.09_PT029H.grib2 2026-04-18 14:47 1.0M
20260418T12Z_MSC_RDPS_Runoff-Accum_Sfc_RLatLon0.09_PT029H.grib2 2026-04-18 14:47 58K
20260418T12Z_MSC_RDPS_SWEATIndex_Sfc_RLatLon0.09_PT029H.grib2 2026-04-18 14:47 2.6M
20260418T12Z_MSC_RDPS_SeeingIndex_EAtm_RLatLon0.09_PT029H.grib2 2026-04-18 14:47 1.0M
20260418T12Z_MSC_RDPS_SensibleHeatNetFlux_Sfc_RLatLon0.09_PT029H.grib2 2026-04-18 14:47 368K
20260418T12Z_MSC_RDPS_ShowalterIndex_IsbL-0500_RLatLon0.09_PT029H.grib2 2026-04-18 14:47 2.6M
20260418T12Z_MSC_RDPS_SkyTransparencyIndex_EAtm_RLatLon0.09_PT029H.grib2 2026-04-18 14:47 746K
20260418T12Z_MSC_RDPS_Snow-Accum1h_Sfc_RLatLon0.09_PT029H.grib2 2026-04-18 14:47 330K
20260418T12Z_MSC_RDPS_Snow-Accum_Sfc_RLatLon0.09_PT029H.grib2 2026-04-18 14:47 705K
20260418T12Z_MSC_RDPS_SnowDensity_Sfc_RLatLon0.09_PT029H.grib2 2026-04-18 14:47 178K
20260418T12Z_MSC_RDPS_SnowDepth_Sfc_RLatLon0.09_PT029H.grib2 2026-04-18 14:47 727K
20260418T12Z_MSC_RDPS_SoilTemp_DBS-0to10cm_RLatLon0.09_PT029H.grib2 2026-04-18 14:47 226K
20260418T12Z_MSC_RDPS_SoilTemp_Sfc_RLatLon0.09_PT029H.grib2 2026-04-18 14:47 294K
20260418T12Z_MSC_RDPS_SoilVolumetricIceContent_Sfc_RLatLon0.09_PT029H.grib2 2026-04-18 14:47 176K
20260418T12Z_MSC_RDPS_SoilVolumetricWaterContent_DBS-0to10cm_RLatLon0.09_PT029H.grib2 2026-04-18 14:47 248K
20260418T12Z_MSC_RDPS_SoilVolumetricWaterContent_DBS-0to1cm_RLatLon0.09_PT029H.grib2 2026-04-18 14:47 338K
20260418T12Z_MSC_RDPS_SpecificHumidity_AGL-120m_RLatLon0.09_PT029H.grib2 2026-04-18 14:47 486K
20260418T12Z_MSC_RDPS_SpecificHumidity_AGL-2m_RLatLon0.09_PT029H.grib2 2026-04-18 14:47 654K
20260418T12Z_MSC_RDPS_SpecificHumidity_AGL-40m_RLatLon0.09_PT029H.grib2 2026-04-18 14:47 491K
20260418T12Z_MSC_RDPS_SpecificHumidity_AGL-80m_RLatLon0.09_PT029H.grib2 2026-04-18 14:47 488K
20260418T12Z_MSC_RDPS_SpecificHumidity_IsbL-0001_RLatLon0.09_PT029H.grib2 2026-04-18 14:47 317K
20260418T12Z_MSC_RDPS_SpecificHumidity_IsbL-0005_RLatLon0.09_PT029H.grib2 2026-04-18 14:47 343K
20260418T12Z_MSC_RDPS_SpecificHumidity_IsbL-0010_RLatLon0.09_PT029H.grib2 2026-04-18 14:47 377K
20260418T12Z_MSC_RDPS_SpecificHumidity_IsbL-0020_RLatLon0.09_PT029H.grib2 2026-04-18 14:47 374K
20260418T12Z_MSC_RDPS_SpecificHumidity_IsbL-0030_RLatLon0.09_PT029H.grib2 2026-04-18 14:47 468K
20260418T12Z_MSC_RDPS_SpecificHumidity_IsbL-0050_RLatLon0.09_PT029H.grib2 2026-04-18 14:47 468K
20260418T12Z_MSC_RDPS_SpecificHumidity_IsbL-0100_RLatLon0.09_PT029H.grib2 2026-04-18 14:47 393K
20260418T12Z_MSC_RDPS_SpecificHumidity_IsbL-0150_RLatLon0.09_PT029H.grib2 2026-04-18 14:47 429K
20260418T12Z_MSC_RDPS_SpecificHumidity_IsbL-0175_RLatLon0.09_PT029H.grib2 2026-04-18 14:47 526K
20260418T12Z_MSC_RDPS_SpecificHumidity_IsbL-0200_RLatLon0.09_PT029H.grib2 2026-04-18 14:47 542K
20260418T12Z_MSC_RDPS_SpecificHumidity_IsbL-0225_RLatLon0.09_PT029H.grib2 2026-04-18 14:47 547K
20260418T12Z_MSC_RDPS_SpecificHumidity_IsbL-0250_RLatLon0.09_PT029H.grib2 2026-04-18 14:47 544K
20260418T12Z_MSC_RDPS_SpecificHumidity_IsbL-0275_RLatLon0.09_PT029H.grib2 2026-04-18 14:47 460K
20260418T12Z_MSC_RDPS_SpecificHumidity_IsbL-0300_RLatLon0.09_PT029H.grib2 2026-04-18 14:47 532K
20260418T12Z_MSC_RDPS_SpecificHumidity_IsbL-0350_RLatLon0.09_PT029H.grib2 2026-04-18 14:47 525K
20260418T12Z_MSC_RDPS_SpecificHumidity_IsbL-0400_RLatLon0.09_PT029H.grib2 2026-04-18 14:47 513K
20260418T12Z_MSC_RDPS_SpecificHumidity_IsbL-0450_RLatLon0.09_PT029H.grib2 2026-04-18 14:47 570K
20260418T12Z_MSC_RDPS_SpecificHumidity_IsbL-0500_RLatLon0.09_PT029H.grib2 2026-04-18 14:47 509K
20260418T12Z_MSC_RDPS_SpecificHumidity_IsbL-0550_RLatLon0.09_PT029H.grib2 2026-04-18 14:47 567K
20260418T12Z_MSC_RDPS_SpecificHumidity_IsbL-0600_RLatLon0.09_PT029H.grib2 2026-04-18 14:47 634K
20260418T12Z_MSC_RDPS_SpecificHumidity_IsbL-0650_RLatLon0.09_PT029H.grib2 2026-04-18 14:47 548K
20260418T12Z_MSC_RDPS_SpecificHumidity_IsbL-0700_RLatLon0.09_PT029H.grib2 2026-04-18 14:47 586K
20260418T12Z_MSC_RDPS_SpecificHumidity_IsbL-0750_RLatLon0.09_PT029H.grib2 2026-04-18 14:47 642K
20260418T12Z_MSC_RDPS_SpecificHumidity_IsbL-0800_RLatLon0.09_PT029H.grib2 2026-04-18 14:47 716K
20260418T12Z_MSC_RDPS_SpecificHumidity_IsbL-0850_RLatLon0.09_PT029H.grib2 2026-04-18 14:47 792K
20260418T12Z_MSC_RDPS_SpecificHumidity_IsbL-0875_RLatLon0.09_PT029H.grib2 2026-04-18 14:47 812K
20260418T12Z_MSC_RDPS_SpecificHumidity_IsbL-0900_RLatLon0.09_PT029H.grib2 2026-04-18 14:47 825K
20260418T12Z_MSC_RDPS_SpecificHumidity_IsbL-0925_RLatLon0.09_PT029H.grib2 2026-04-18 14:47 689K
20260418T12Z_MSC_RDPS_SpecificHumidity_IsbL-0950_RLatLon0.09_PT029H.grib2 2026-04-18 14:47 690K
20260418T12Z_MSC_RDPS_SpecificHumidity_IsbL-0970_RLatLon0.09_PT029H.grib2 2026-04-18 14:47 686K
20260418T12Z_MSC_RDPS_SpecificHumidity_IsbL-0985_RLatLon0.09_PT029H.grib2 2026-04-18 14:47 680K
20260418T12Z_MSC_RDPS_SpecificHumidity_IsbL-1000_RLatLon0.09_PT029H.grib2 2026-04-18 14:47 673K
20260418T12Z_MSC_RDPS_SpecificHumidity_IsbL-1015_RLatLon0.09_PT029H.grib2 2026-04-18 14:47 664K
20260418T12Z_MSC_RDPS_SpecificHumidity_Sfc_RLatLon0.09_PT029H.grib2 2026-04-18 14:47 327K
20260418T12Z_MSC_RDPS_StormRelativeHelicity_EtaL-10000_RLatLon0.09_PT029H.grib2 2026-04-18 14:47 1.2M
20260418T12Z_MSC_RDPS_StormSeverityIndex_EtaL-10000_RLatLon0.09_PT029H.grib2 2026-04-18 14:47 1.2M
20260418T12Z_MSC_RDPS_Thickness_IsbL-0850to0700_RLatLon0.09_PT029H.grib2 2026-04-18 14:47 184K
20260418T12Z_MSC_RDPS_Thickness_IsbL-1000to0500_RLatLon0.09_PT029H.grib2 2026-04-18 14:47 206K
20260418T12Z_MSC_RDPS_Thickness_IsbL-1000to0850_RLatLon0.09_PT029H.grib2 2026-04-18 14:47 194K
20260418T12Z_MSC_RDPS_TotalCloudCover_Sfc_RLatLon0.09_PT029H.grib2 2026-04-18 14:47 665K
20260418T12Z_MSC_RDPS_TotalTotalsIndex_Sfc_RLatLon0.09_PT029H.grib2 2026-04-18 14:47 2.4M
20260418T12Z_MSC_RDPS_UVIndex-ClearSky_Sfc_RLatLon0.09_PT029H.grib2 2026-04-18 14:47 213K
20260418T12Z_MSC_RDPS_UVIndex_Sfc_RLatLon0.09_PT029H.grib2 2026-04-18 14:47 501K
20260418T12Z_MSC_RDPS_UpwardLongwaveRadiationFlux_NTAtm_RLatLon0.09_PT029H.grib2 2026-04-18 14:47 489K
20260418T12Z_MSC_RDPS_UpwardShortwaveRadiationFlux_NTAtm_RLatLon0.09_PT029H.grib2 2026-04-18 14:47 535K
20260418T12Z_MSC_RDPS_VerticalVelocity_IsbL-0250_RLatLon0.09_PT029H.grib2 2026-04-18 14:47 439K
20260418T12Z_MSC_RDPS_VerticalVelocity_IsbL-0500_RLatLon0.09_PT029H.grib2 2026-04-18 14:47 547K
20260418T12Z_MSC_RDPS_VerticalVelocity_IsbL-0700_RLatLon0.09_PT029H.grib2 2026-04-18 14:47 606K
20260418T12Z_MSC_RDPS_VerticalVelocity_IsbL-0850_RLatLon0.09_PT029H.grib2 2026-04-18 14:47 713K
20260418T12Z_MSC_RDPS_VerticalWindShear_EtaL-6500_RLatLon0.09_PT029H.grib2 2026-04-18 14:47 1.2M
20260418T12Z_MSC_RDPS_WindChill_Sfc_RLatLon0.09_PT029H.grib2 2026-04-18 14:47 1.2M
20260418T12Z_MSC_RDPS_WindDir_AGL-10m_RLatLon0.09_PT029H.grib2 2026-04-18 14:47 1.0M
20260418T12Z_MSC_RDPS_WindDir_AGL-120m_RLatLon0.09_PT029H.grib2 2026-04-18 14:47 617K
20260418T12Z_MSC_RDPS_WindDir_AGL-40m_RLatLon0.09_PT029H.grib2 2026-04-18 14:47 640K
20260418T12Z_MSC_RDPS_WindDir_AGL-80m_RLatLon0.09_PT029H.grib2 2026-04-18 14:47 626K
20260418T12Z_MSC_RDPS_WindDir_IsbL-0001_RLatLon0.09_PT029H.grib2 2026-04-18 14:47 263K
20260418T12Z_MSC_RDPS_WindDir_IsbL-0005_RLatLon0.09_PT029H.grib2 2026-04-18 14:47 340K
20260418T12Z_MSC_RDPS_WindDir_IsbL-0010_RLatLon0.09_PT029H.grib2 2026-04-18 14:47 371K
20260418T12Z_MSC_RDPS_WindDir_IsbL-0020_RLatLon0.09_PT029H.grib2 2026-04-18 14:47 388K
20260418T12Z_MSC_RDPS_WindDir_IsbL-0030_RLatLon0.09_PT029H.grib2 2026-04-18 14:47 394K
20260418T12Z_MSC_RDPS_WindDir_IsbL-0050_RLatLon0.09_PT029H.grib2 2026-04-18 14:47 420K
20260418T12Z_MSC_RDPS_WindDir_IsbL-0100_RLatLon0.09_PT029H.grib2 2026-04-18 14:47 404K
20260418T12Z_MSC_RDPS_WindDir_IsbL-0150_RLatLon0.09_PT029H.grib2 2026-04-18 14:47 404K
20260418T12Z_MSC_RDPS_WindDir_IsbL-0175_RLatLon0.09_PT029H.grib2 2026-04-18 14:47 428K
20260418T12Z_MSC_RDPS_WindDir_IsbL-0200_RLatLon0.09_PT029H.grib2 2026-04-18 14:47 441K
20260418T12Z_MSC_RDPS_WindDir_IsbL-0225_RLatLon0.09_PT029H.grib2 2026-04-18 14:47 438K
20260418T12Z_MSC_RDPS_WindDir_IsbL-0250_RLatLon0.09_PT029H.grib2 2026-04-18 14:47 432K
20260418T12Z_MSC_RDPS_WindDir_IsbL-0275_RLatLon0.09_PT029H.grib2 2026-04-18 14:47 450K
20260418T12Z_MSC_RDPS_WindDir_IsbL-0300_RLatLon0.09_PT029H.grib2 2026-04-18 14:47 450K
20260418T12Z_MSC_RDPS_WindDir_IsbL-0350_RLatLon0.09_PT029H.grib2 2026-04-18 14:47 468K
20260418T12Z_MSC_RDPS_WindDir_IsbL-0400_RLatLon0.09_PT029H.grib2 2026-04-18 14:47 484K
20260418T12Z_MSC_RDPS_WindDir_IsbL-0450_RLatLon0.09_PT029H.grib2 2026-04-18 14:47 503K
20260418T12Z_MSC_RDPS_WindDir_IsbL-0500_RLatLon0.09_PT029H.grib2 2026-04-18 14:47 529K
20260418T12Z_MSC_RDPS_WindDir_IsbL-0550_RLatLon0.09_PT029H.grib2 2026-04-18 14:47 552K
20260418T12Z_MSC_RDPS_WindDir_IsbL-0600_RLatLon0.09_PT029H.grib2 2026-04-18 14:47 583K
20260418T12Z_MSC_RDPS_WindDir_IsbL-0650_RLatLon0.09_PT029H.grib2 2026-04-18 14:47 621K
20260418T12Z_MSC_RDPS_WindDir_IsbL-0700_RLatLon0.09_PT029H.grib2 2026-04-18 14:47 661K
20260418T12Z_MSC_RDPS_WindDir_IsbL-0750_RLatLon0.09_PT029H.grib2 2026-04-18 14:47 710K
20260418T12Z_MSC_RDPS_WindDir_IsbL-0800_RLatLon0.09_PT029H.grib2 2026-04-18 14:47 779K
20260418T12Z_MSC_RDPS_WindDir_IsbL-0850_RLatLon0.09_PT029H.grib2 2026-04-18 14:47 853K
20260418T12Z_MSC_RDPS_WindDir_IsbL-0875_RLatLon0.09_PT029H.grib2 2026-04-18 14:47 882K
20260418T12Z_MSC_RDPS_WindDir_IsbL-0900_RLatLon0.09_PT029H.grib2 2026-04-18 14:47 902K
20260418T12Z_MSC_RDPS_WindDir_IsbL-0925_RLatLon0.09_PT029H.grib2 2026-04-18 14:47 912K
20260418T12Z_MSC_RDPS_WindDir_IsbL-0950_RLatLon0.09_PT029H.grib2 2026-04-18 14:47 908K
20260418T12Z_MSC_RDPS_WindDir_IsbL-0970_RLatLon0.09_PT029H.grib2 2026-04-18 14:47 918K
20260418T12Z_MSC_RDPS_WindDir_IsbL-0985_RLatLon0.09_PT029H.grib2 2026-04-18 14:47 929K
20260418T12Z_MSC_RDPS_WindDir_IsbL-1000_RLatLon0.09_PT029H.grib2 2026-04-18 14:47 947K
20260418T12Z_MSC_RDPS_WindDir_IsbL-1015_RLatLon0.09_PT029H.grib2 2026-04-18 14:47 967K
20260418T12Z_MSC_RDPS_WindGust-Max_AGL-10m_RLatLon0.09_PT029H.grib2 2026-04-18 14:47 1.0M
20260418T12Z_MSC_RDPS_WindGust-Min_AGL-10m_RLatLon0.09_PT029H.grib2 2026-04-18 14:47 1.0M
20260418T12Z_MSC_RDPS_WindGust_AGL-10m_RLatLon0.09_PT029H.grib2 2026-04-18 14:47 1.0M
20260418T12Z_MSC_RDPS_WindSpeed_AGL-10m_RLatLon0.09_PT029H.grib2 2026-04-18 14:47 856K
20260418T12Z_MSC_RDPS_WindSpeed_AGL-120m_RLatLon0.09_PT029H.grib2 2026-04-18 14:47 547K
20260418T12Z_MSC_RDPS_WindSpeed_AGL-40m_RLatLon0.09_PT029H.grib2 2026-04-18 14:47 551K
20260418T12Z_MSC_RDPS_WindSpeed_AGL-80m_RLatLon0.09_PT029H.grib2 2026-04-18 14:47 548K
20260418T12Z_MSC_RDPS_WindSpeed_IsbL-0001_RLatLon0.09_PT029H.grib2 2026-04-18 14:47 251K
20260418T12Z_MSC_RDPS_WindSpeed_IsbL-0005_RLatLon0.09_PT029H.grib2 2026-04-18 14:47 340K
20260418T12Z_MSC_RDPS_WindSpeed_IsbL-0010_RLatLon0.09_PT029H.grib2 2026-04-18 14:47 312K
20260418T12Z_MSC_RDPS_WindSpeed_IsbL-0020_RLatLon0.09_PT029H.grib2 2026-04-18 14:47 329K
20260418T12Z_MSC_RDPS_WindSpeed_IsbL-0030_RLatLon0.09_PT029H.grib2 2026-04-18 14:47 331K
20260418T12Z_MSC_RDPS_WindSpeed_IsbL-0050_RLatLon0.09_PT029H.grib2 2026-04-18 14:47 371K
20260418T12Z_MSC_RDPS_WindSpeed_IsbL-0100_RLatLon0.09_PT029H.grib2 2026-04-18 14:47 479K
20260418T12Z_MSC_RDPS_WindSpeed_IsbL-0150_RLatLon0.09_PT029H.grib2 2026-04-18 14:47 476K
20260418T12Z_MSC_RDPS_WindSpeed_IsbL-0175_RLatLon0.09_PT029H.grib2 2026-04-18 14:47 401K
20260418T12Z_MSC_RDPS_WindSpeed_IsbL-0200_RLatLon0.09_PT029H.grib2 2026-04-18 14:47 439K
20260418T12Z_MSC_RDPS_WindSpeed_IsbL-0225_RLatLon0.09_PT029H.grib2 2026-04-18 14:47 445K
20260418T12Z_MSC_RDPS_WindSpeed_IsbL-0250_RLatLon0.09_PT029H.grib2 2026-04-18 14:47 446K
20260418T12Z_MSC_RDPS_WindSpeed_IsbL-0275_RLatLon0.09_PT029H.grib2 2026-04-18 14:47 461K
20260418T12Z_MSC_RDPS_WindSpeed_IsbL-0300_RLatLon0.09_PT029H.grib2 2026-04-18 14:47 456K
20260418T12Z_MSC_RDPS_WindSpeed_IsbL-0350_RLatLon0.09_PT029H.grib2 2026-04-18 14:47 466K
20260418T12Z_MSC_RDPS_WindSpeed_IsbL-0400_RLatLon0.09_PT029H.grib2 2026-04-18 14:47 472K
20260418T12Z_MSC_RDPS_WindSpeed_IsbL-0450_RLatLon0.09_PT029H.grib2 2026-04-18 14:47 477K
20260418T12Z_MSC_RDPS_WindSpeed_IsbL-0500_RLatLon0.09_PT029H.grib2 2026-04-18 14:47 462K
20260418T12Z_MSC_RDPS_WindSpeed_IsbL-0550_RLatLon0.09_PT029H.grib2 2026-04-18 14:47 581K
20260418T12Z_MSC_RDPS_WindSpeed_IsbL-0600_RLatLon0.09_PT029H.grib2 2026-04-18 14:47 589K
20260418T12Z_MSC_RDPS_WindSpeed_IsbL-0650_RLatLon0.09_PT029H.grib2 2026-04-18 14:47 611K
20260418T12Z_MSC_RDPS_WindSpeed_IsbL-0700_RLatLon0.09_PT029H.grib2 2026-04-18 14:47 638K
20260418T12Z_MSC_RDPS_WindSpeed_IsbL-0750_RLatLon0.09_PT029H.grib2 2026-04-18 14:47 717K
20260418T12Z_MSC_RDPS_WindSpeed_IsbL-0800_RLatLon0.09_PT029H.grib2 2026-04-18 14:47 771K
20260418T12Z_MSC_RDPS_WindSpeed_IsbL-0850_RLatLon0.09_PT029H.grib2 2026-04-18 14:47 828K
20260418T12Z_MSC_RDPS_WindSpeed_IsbL-0875_RLatLon0.09_PT029H.grib2 2026-04-18 14:47 850K
20260418T12Z_MSC_RDPS_WindSpeed_IsbL-0900_RLatLon0.09_PT029H.grib2 2026-04-18 14:47 864K
20260418T12Z_MSC_RDPS_WindSpeed_IsbL-0925_RLatLon0.09_PT029H.grib2 2026-04-18 14:47 874K
20260418T12Z_MSC_RDPS_WindSpeed_IsbL-0950_RLatLon0.09_PT029H.grib2 2026-04-18 14:47 870K
20260418T12Z_MSC_RDPS_WindSpeed_IsbL-0970_RLatLon0.09_PT029H.grib2 2026-04-18 14:47 867K
20260418T12Z_MSC_RDPS_WindSpeed_IsbL-0985_RLatLon0.09_PT029H.grib2 2026-04-18 14:47 862K
20260418T12Z_MSC_RDPS_WindSpeed_IsbL-1000_RLatLon0.09_PT029H.grib2 2026-04-18 14:47 863K
20260418T12Z_MSC_RDPS_WindSpeed_IsbL-1015_RLatLon0.09_PT029H.grib2 2026-04-18 14:47 856K
20260418T12Z_MSC_RDPS_WindU_AGL-10m_RLatLon0.09_PT029H.grib2 2026-04-18 14:47 445K
20260418T12Z_MSC_RDPS_WindU_AGL-120m_RLatLon0.09_PT029H.grib2 2026-04-18 14:47 427K
20260418T12Z_MSC_RDPS_WindU_AGL-40m_RLatLon0.09_PT029H.grib2 2026-04-18 14:47 549K
20260418T12Z_MSC_RDPS_WindU_AGL-80m_RLatLon0.09_PT029H.grib2 2026-04-18 14:47 429K
20260418T12Z_MSC_RDPS_WindU_IsbL-0001_RLatLon0.09_PT029H.grib2 2026-04-18 14:47 266K
20260418T12Z_MSC_RDPS_WindU_IsbL-0005_RLatLon0.09_PT029H.grib2 2026-04-18 14:47 333K
20260418T12Z_MSC_RDPS_WindU_IsbL-0010_RLatLon0.09_PT029H.grib2 2026-04-18 14:47 315K
20260418T12Z_MSC_RDPS_WindU_IsbL-0020_RLatLon0.09_PT029H.grib2 2026-04-18 14:47 330K
20260418T12Z_MSC_RDPS_WindU_IsbL-0030_RLatLon0.09_PT029H.grib2 2026-04-18 14:47 332K
20260418T12Z_MSC_RDPS_WindU_IsbL-0050_RLatLon0.09_PT029H.grib2 2026-04-18 14:47 395K
20260418T12Z_MSC_RDPS_WindU_IsbL-0100_RLatLon0.09_PT029H.grib2 2026-04-18 14:47 431K
20260418T12Z_MSC_RDPS_WindU_IsbL-0150_RLatLon0.09_PT029H.grib2 2026-04-18 14:47 389K
20260418T12Z_MSC_RDPS_WindU_IsbL-0175_RLatLon0.09_PT029H.grib2 2026-04-18 14:47 414K
20260418T12Z_MSC_RDPS_WindU_IsbL-0200_RLatLon0.09_PT029H.grib2 2026-04-18 14:47 431K
20260418T12Z_MSC_RDPS_WindU_IsbL-0225_RLatLon0.09_PT029H.grib2 2026-04-18 14:47 338K
20260418T12Z_MSC_RDPS_WindU_IsbL-0250_RLatLon0.09_PT029H.grib2 2026-04-18 14:47 339K
20260418T12Z_MSC_RDPS_WindU_IsbL-0275_RLatLon0.09_PT029H.grib2 2026-04-18 14:47 352K
20260418T12Z_MSC_RDPS_WindU_IsbL-0300_RLatLon0.09_PT029H.grib2 2026-04-18 14:47 347K
20260418T12Z_MSC_RDPS_WindU_IsbL-0350_RLatLon0.09_PT029H.grib2 2026-04-18 14:47 353K
20260418T12Z_MSC_RDPS_WindU_IsbL-0400_RLatLon0.09_PT029H.grib2 2026-04-18 14:47 357K
20260418T12Z_MSC_RDPS_WindU_IsbL-0450_RLatLon0.09_PT029H.grib2 2026-04-18 14:47 361K
20260418T12Z_MSC_RDPS_WindU_IsbL-0500_RLatLon0.09_PT029H.grib2 2026-04-18 14:47 466K
20260418T12Z_MSC_RDPS_WindU_IsbL-0550_RLatLon0.09_PT029H.grib2 2026-04-18 14:47 469K
20260418T12Z_MSC_RDPS_WindU_IsbL-0600_RLatLon0.09_PT029H.grib2 2026-04-18 14:47 477K
20260418T12Z_MSC_RDPS_WindU_IsbL-0650_RLatLon0.09_PT029H.grib2 2026-04-18 14:47 496K
20260418T12Z_MSC_RDPS_WindU_IsbL-0700_RLatLon0.09_PT029H.grib2 2026-04-18 14:47 520K
20260418T12Z_MSC_RDPS_WindU_IsbL-0750_RLatLon0.09_PT029H.grib2 2026-04-18 14:47 536K
20260418T12Z_MSC_RDPS_WindU_IsbL-0800_RLatLon0.09_PT029H.grib2 2026-04-18 14:47 583K
20260418T12Z_MSC_RDPS_WindU_IsbL-0850_RLatLon0.09_PT029H.grib2 2026-04-18 14:47 641K
20260418T12Z_MSC_RDPS_WindU_IsbL-0875_RLatLon0.09_PT029H.grib2 2026-04-18 14:47 659K
20260418T12Z_MSC_RDPS_WindU_IsbL-0900_RLatLon0.09_PT029H.grib2 2026-04-18 14:47 670K
20260418T12Z_MSC_RDPS_WindU_IsbL-0925_RLatLon0.09_PT029H.grib2 2026-04-18 14:47 670K
20260418T12Z_MSC_RDPS_WindU_IsbL-0950_RLatLon0.09_PT029H.grib2 2026-04-18 14:47 665K
20260418T12Z_MSC_RDPS_WindU_IsbL-0970_RLatLon0.09_PT029H.grib2 2026-04-18 14:47 662K
20260418T12Z_MSC_RDPS_WindU_IsbL-0985_RLatLon0.09_PT029H.grib2 2026-04-18 14:47 662K
20260418T12Z_MSC_RDPS_WindU_IsbL-1000_RLatLon0.09_PT029H.grib2 2026-04-18 14:47 803K
20260418T12Z_MSC_RDPS_WindU_IsbL-1015_RLatLon0.09_PT029H.grib2 2026-04-18 14:47 798K
20260418T12Z_MSC_RDPS_WindV_AGL-10m_RLatLon0.09_PT029H.grib2 2026-04-18 14:47 439K
20260418T12Z_MSC_RDPS_WindV_AGL-120m_RLatLon0.09_PT029H.grib2 2026-04-18 14:47 423K
20260418T12Z_MSC_RDPS_WindV_AGL-40m_RLatLon0.09_PT029H.grib2 2026-04-18 14:47 425K
20260418T12Z_MSC_RDPS_WindV_AGL-80m_RLatLon0.09_PT029H.grib2 2026-04-18 14:47 424K
20260418T12Z_MSC_RDPS_WindV_IsbL-0001_RLatLon0.09_PT029H.grib2 2026-04-18 14:47 267K
20260418T12Z_MSC_RDPS_WindV_IsbL-0005_RLatLon0.09_PT029H.grib2 2026-04-18 14:47 305K
20260418T12Z_MSC_RDPS_WindV_IsbL-0010_RLatLon0.09_PT029H.grib2 2026-04-18 14:47 345K
20260418T12Z_MSC_RDPS_WindV_IsbL-0020_RLatLon0.09_PT029H.grib2 2026-04-18 14:47 361K
20260418T12Z_MSC_RDPS_WindV_IsbL-0030_RLatLon0.09_PT029H.grib2 2026-04-18 14:47 325K
20260418T12Z_MSC_RDPS_WindV_IsbL-0050_RLatLon0.09_PT029H.grib2 2026-04-18 14:47 362K
20260418T12Z_MSC_RDPS_WindV_IsbL-0100_RLatLon0.09_PT029H.grib2 2026-04-18 14:47 333K
20260418T12Z_MSC_RDPS_WindV_IsbL-0150_RLatLon0.09_PT029H.grib2 2026-04-18 14:47 387K
20260418T12Z_MSC_RDPS_WindV_IsbL-0175_RLatLon0.09_PT029H.grib2 2026-04-18 14:47 414K
20260418T12Z_MSC_RDPS_WindV_IsbL-0200_RLatLon0.09_PT029H.grib2 2026-04-18 14:47 335K
20260418T12Z_MSC_RDPS_WindV_IsbL-0225_RLatLon0.09_PT029H.grib2 2026-04-18 14:47 338K
20260418T12Z_MSC_RDPS_WindV_IsbL-0250_RLatLon0.09_PT029H.grib2 2026-04-18 14:47 364K
20260418T12Z_MSC_RDPS_WindV_IsbL-0275_RLatLon0.09_PT029H.grib2 2026-04-18 14:47 376K
20260418T12Z_MSC_RDPS_WindV_IsbL-0300_RLatLon0.09_PT029H.grib2 2026-04-18 14:47 372K
20260418T12Z_MSC_RDPS_WindV_IsbL-0350_RLatLon0.09_PT029H.grib2 2026-04-18 14:47 378K
20260418T12Z_MSC_RDPS_WindV_IsbL-0400_RLatLon0.09_PT029H.grib2 2026-04-18 14:47 382K
20260418T12Z_MSC_RDPS_WindV_IsbL-0450_RLatLon0.09_PT029H.grib2 2026-04-18 14:47 360K
20260418T12Z_MSC_RDPS_WindV_IsbL-0500_RLatLon0.09_PT029H.grib2 2026-04-18 14:47 465K
20260418T12Z_MSC_RDPS_WindV_IsbL-0550_RLatLon0.09_PT029H.grib2 2026-04-18 14:47 467K
20260418T12Z_MSC_RDPS_WindV_IsbL-0600_RLatLon0.09_PT029H.grib2 2026-04-18 14:47 474K
20260418T12Z_MSC_RDPS_WindV_IsbL-0650_RLatLon0.09_PT029H.grib2 2026-04-18 14:47 494K
20260418T12Z_MSC_RDPS_WindV_IsbL-0700_RLatLon0.09_PT029H.grib2 2026-04-18 14:47 518K
20260418T12Z_MSC_RDPS_WindV_IsbL-0750_RLatLon0.09_PT029H.grib2 2026-04-18 14:47 534K
20260418T12Z_MSC_RDPS_WindV_IsbL-0800_RLatLon0.09_PT029H.grib2 2026-04-18 14:47 581K
20260418T12Z_MSC_RDPS_WindV_IsbL-0850_RLatLon0.09_PT029H.grib2 2026-04-18 14:47 631K
20260418T12Z_MSC_RDPS_WindV_IsbL-0875_RLatLon0.09_PT029H.grib2 2026-04-18 14:47 649K
20260418T12Z_MSC_RDPS_WindV_IsbL-0900_RLatLon0.09_PT029H.grib2 2026-04-18 14:47 660K
20260418T12Z_MSC_RDPS_WindV_IsbL-0925_RLatLon0.09_PT029H.grib2 2026-04-18 14:47 665K
20260418T12Z_MSC_RDPS_WindV_IsbL-0950_RLatLon0.09_PT029H.grib2 2026-04-18 14:47 658K
20260418T12Z_MSC_RDPS_WindV_IsbL-0970_RLatLon0.09_PT029H.grib2 2026-04-18 14:47 656K
20260418T12Z_MSC_RDPS_WindV_IsbL-0985_RLatLon0.09_PT029H.grib2 2026-04-18 14:47 655K
20260418T12Z_MSC_RDPS_WindV_IsbL-1000_RLatLon0.09_PT029H.grib2 2026-04-18 14:47 655K
20260418T12Z_MSC_RDPS_WindV_IsbL-1015_RLatLon0.09_PT029H.grib2 2026-04-18 14:47 790K